FW8640 Weather Reports


time (UTC)temp
F
wind
direction
speed
knots
gust
knots
rain 1hr
in
rain 24hr
in
rain mn
in
humidity
%
barometer
mb
20260507014018 60 0.0 0.0 0.00 0.00 0.00 78 1016.6
20260507013018 60 0.0 0.0 0.00 0.00 0.00 77 1016.7
20260507012018 61 0.0 0.0 0.00 0.00 0.00 76 1016.7
20260507011021 61 0.0 0.0 0.00 0.00 0.00 76 1016.7
20260507010018 62 0.0 0.0 0.00 0.00 0.00 75 1016.6
20260507005020 63 0.0 0.0 0.00 0.00 0.00 75 1016.5
20260507004018 63 0.0 0.0 0.00 0.00 0.00 76 1016.3
20260507003018 63 0.0 3.5 0.00 0.00 0.00 77 1016.3
20260507002040 62 0.0 0.0 0.00 0.00 0.00 78 1016.3
20260507001018 61 0.0 0.0 0.00 0.00 0.00 77 1016.3
20260507000019 61 0.0 0.0 0.00 0.00 0.00 77 1016.4
20260506235103 62 0.0 0.0 0.00 0.00 0.00 77 1016.7
20260506234018 62 0.0 0.0 0.00 0.00 0.00 78 1016.8
20260506233019 61 0.0 0.0 0.00 0.00 0.00 78 1016.9
20260506232018 61 0.0 0.0 0.00 0.00 0.00 76 1016.8
20260506231017 61 0.0 0.0 0.00 0.00 0.00 76 1016.8
20260506230019 61 0.0 0.0 0.00 0.00 0.00 76 1016.9
20260506225018 61 0.0 0.0 0.00 0.00 0.00 77 1016.9
20260506224019 61 0.0 0.0 0.00 0.00 0.00 77 1016.9
20260506223018 62 0.0 0.0 0.00 0.00 0.00 77 1016.9
20260506222017 62 0.0 0.0 0.00 0.00 0.00 77 1017.0
20260506221017 63 0.0 0.0 0.00 0.00 0.00 78 1017.0
20260506220018 64 0.0 0.0 0.00 0.00 0.00 79 1016.9
20260506215039 64 0.0 0.0 0.00 0.00 0.00 79 1017.0
20260506214019 64 0.0 0.0 0.00 0.00 0.00 79 1017.0
20260506213042 64 0.0 1.7 0.00 0.00 0.00 79 1017.0
20260506212017 64 0.0 0.0 0.00 0.00 0.00 79 1017.1
20260506211017 64 0.0 0.0 0.00 0.00 0.00 79 1017.1
20260506210019 64 0.0 2.6 0.00 0.00 0.00 79 1017.1
20260506205018 64 225 0.9 5.2 0.00 0.00 0.00 79 1017.3
20260506204018 65 0.0 1.7 0.00 0.00 0.00 80 1017.1
20260506203019 65 0.0 4.3 0.00 0.00 0.00 81 1016.9
20260506202103 65 0.0 0.0 0.00 0.00 0.00 81 1016.9
20260506201041 65 0.0 0.9 0.00 0.00 0.00 81 1016.7
20260506200018 65 0.0 1.7 0.00 0.00 0.00 81 1016.7
20260506195018 65 225 1.7 5.2 0.00 0.00 0.00 81 1016.7
20260506194018 65 0.0 0.0 0.00 0.00 0.00 81 1016.5
20260506193042 65 0.0 3.5 0.00 0.00 0.00 81 1016.5
20260506192041 65 0.0 2.6 0.00 0.00 0.00 80 1016.4
20260506191018 66 0.0 0.0 0.00 0.00 0.00 80 1016.4
20260506190019 66 0.0 1.7 0.00 0.00 0.00 80 1016.3
20260506185018 66 0.0 0.0 0.00 0.00 0.00 80 1016.3
20260506184041 66 0.0 0.0 0.00 0.00 0.00 80 1016.2
20260506183018 66 0.0 0.0 0.00 0.00 0.00 80 1016.3
20260506182018 66 0.0 0.0 0.00 0.00 0.00 79 1016.1
20260506181041 67 0.0 0.0 0.00 0.00 0.00 78 1016.0
20260506180018 67 0.0 0.0 0.00 0.00 0.00 78 1016.0
20260506175018 67 0.0 0.0 0.00 0.00 0.00 77 1015.8
20260506174020 67 0.0 3.5 0.00 0.00 0.00 76 1015.6
20260506173018 67 0.0 2.6 0.00 0.00 0.00 75 1015.5
20260506172020 68 225 0.9 4.3 0.00 0.00 0.00 73 1015.6
20260506171041 69 0.0 0.0 0.00 0.00 0.00 71 1015.3
20260506170018 69 0.0 0.9 0.00 0.00 0.00 70 1015.4
20260506165041 70 0.0 0.0 0.00 0.00 0.00 72 1015.3
20260506164018 69 0.0 0.0 0.00 0.00 0.00 72 1015.3
20260506163018 69 0.0 3.5 0.00 0.00 0.00 73 1015.4
20260506162019 70 225 2.6 7.8 0.00 0.00 0.00 69 1015.5
20260506161019 71 225 0.9 4.3 0.00 0.00 0.00 68 1015.5
20260506160018 71 225 0.9 4.3 0.00 0.00 0.00 67 1015.5
20260506155019 71 225 0.9 5.2 0.00 0.00 0.00 67 1015.4
20260506154018 71 225 0.9 6.1 0.00 0.00 0.00 66 1015.5
20260506153020 71 0.0 0.9 0.00 0.00 0.00 67 1015.6
20260506152018 71 225 4.3 7.8 0.00 0.00 0.00 65 1015.6
20260506151018 72 225 3.5 9.6 0.00 0.00 0.00 62 1015.7
20260506150021 73 225 0.9 4.3 0.00 0.00 0.00 63 1015.6
20260506145018 72 225 0.9 7.0 0.00 0.00 0.00 62 1015.5
20260506144018 73 225 2.6 8.7 0.00 0.00 0.00 62 1015.5
20260506143040 72 225 0.9 5.2 0.00 0.00 0.00 63 1015.6
20260506142039 72 225 2.6 7.8 0.00 0.00 0.00 63 1015.7
20260506141017 73 225 5.2 8.7 0.00 0.00 0.00 61 1015.7
20260506140018 74 203 3.5 9.6 0.00 0.00 0.00 59 1015.7
20260506135019 75 203 2.6 6.1 0.00 0.00 0.00 55 1015.6
20260506134017 75 203 1.7 7.0 0.00 0.00 0.00 55 1015.4
20260506133039 74 203 2.6 7.8 0.00 0.00 0.00 53 1015.6
20260506132018 75 203 1.7 8.7 0.00 0.00 0.00 55 1015.8
20260506131019 75 203 2.6 7.8 0.00 0.00 0.00 56 1016.0
20260506130019 75 203 1.7 6.1 0.00 0.00 0.00 56 1016.0
20260506125123 75 203 1.7 7.0 0.00 0.00 0.00 54 1016.1
20260506124018 76 180 1.7 7.0 0.00 0.00 0.00 52 1016.3
20260506123040 76 180 0.9 3.5 0.00 0.00 0.00 52 1016.4
20260506122019 76 180 1.7 6.1 0.00 0.00 0.00 49 1016.5
20260506121017 76 180 1.7 6.1 0.00 0.00 0.00 51 1016.6
20260506120018 76 180 0.9 3.5 0.00 0.00 0.00 50 1016.7
20260506115017 77 180 0.9 1.7 0.00 0.00 0.00 47 1016.6
20260506114017 76 0.0 4.3 0.00 0.00 0.00 46 1016.7
20260506113017 77 0.0 1.7 0.00 0.00 0.00 45 1016.7
20260506112019 76 0.0 0.9 0.00 0.00 0.00 46 1016.8
20260506111019 75 0.0 1.7 0.00 0.00 0.00 48 1016.9
20260506110018 74 180 0.9 5.2 0.00 0.00 0.00 47 1017.0
20260506105019 74 180 4.3 8.7 0.00 0.00 0.00 43 1017.0
20260506104020 74 180 0.9 6.1 0.00 0.00 0.00 43 1017.0
20260506103019 75 180 1.7 5.2 0.00 0.00 0.00 39 1017.0
20260506102019 75 180 0.9 3.5 0.00 0.00 0.00 38 1016.9
20260506101019 74 0.0 1.7 0.00 0.00 0.00 43 1017.0
20260506100019 74 180 0.9 4.3 0.00 0.00 0.00 46 1017.1
20260506095020 75 180 2.6 6.1 0.00 0.00 0.00 45 1017.2
20260506094019 76 180 1.7 6.1 0.00 0.00 0.00 41 1017.2
20260506093020 76 0.0 1.7 0.00 0.00 0.00 39 1017.2
20260506092020 75 0.0 0.9 0.00 0.00 0.00 40 1017.4
20260506091022 74 0.0 3.5 0.00 0.00 0.00 45 1017.2
20260506090019 73 0.0 1.7 0.00 0.00 0.00 48 1017.3
20260506085040 73 0.0 2.6 0.00 0.00 0.00 56 1017.2
20260506084019 72 0.0 2.6 0.00 0.00 0.00 57 1017.3
20260506083019 71 0.0 3.5 0.00 0.00 0.00 59 1017.3
20260506082019 70 180 0.9 4.3 0.00 0.00 0.00 60 1017.3
20260506081042 70 0.0 1.7 0.00 0.00 0.00 61 1017.1
20260506073019 69 180 0.9 3.5 0.00 0.00 0.00 62 1017.2
20260506072041 69 0.0 0.9 0.00 0.00 0.00 63 1017.1
20260506071020 68 0.0 2.6 0.00 0.00 0.00 64 1017.1
20260506062018 65 180 0.9 3.5 0.00 0.00 0.00 68 1017.4
20260506061103 65 0.0 0.0 0.00 0.00 0.00 68 1017.3
20260506051019 63 0.0 0.0 0.00 0.00 0.00 72 1017.2
20260506045018 61 0.0 0.0 0.00 0.00 0.00 74 1017.0
20260506044019 60 0.0 0.0 0.00 0.00 0.00 75 1016.9
20260506043042 59 0.0 0.0 0.00 0.00 0.00 76 1016.7
20260506042042 58 0.0 0.0 0.00 0.00 0.00 76 1016.6
20260506041042 58 0.0 0.0 0.00 0.00 0.00 75 1016.6
20260506040019 58 0.0 0.0 0.00 0.00 0.00 75 1016.5
20260506035020 58 0.0 0.0 0.00 0.00 0.00 74 1016.4
20260506034020 58 0.0 0.0 0.00 0.00 0.00 74 1016.3
20260506033019 58 0.0 0.0 0.00 0.00 0.00 74 1016.4
20260506032019 58 0.0 0.0 0.00 0.00 0.00 74 1016.4
20260506031020 58 0.0 0.0 0.00 0.00 0.00 73 1016.4
20260506030018 58 0.0 0.0 0.00 0.00 0.00 73 1016.3
20260506025018 58 0.0 0.0 0.00 0.00 0.00 72 1016.3
20260506024018 58 0.0 0.0 0.00 0.00 0.00 71 1016.4
20260506023124 58 0.0 0.0 0.00 0.00 0.00 71 1016.4
20260506022018 58 0.0 0.0 0.00 0.00 0.00 70 1016.6
20260506021019 58 0.0 0.0 0.00 0.00 0.00 70 1016.4
20260506020021 58 0.0 0.0 0.00 0.00 0.00 70 1016.4
20260506015102 58 0.0 0.0 0.00 0.00 0.00 69 1016.3